[[[{"header":{"parameterUnit":"kt","parameterCategory":2,"dx":1,"dy":1,"la1":30.253999710083008,"la2":30.299108505249023,"lo1":-89.0895004272461,"lo2":-89.04439544677734,"nx":28,"ny":28,"refTime":"2022-10-07T21:00:00:Z","depth":0,"parameterNumber":1,"parameterNumberName":"U-component_of_WINDS"},"data":[2.1667,2.1841,2.1889,2.211,2.2191,2.235,2.2423,2.2522,2.2614,2.2811,2.2934,2.3002,2.3115,2.3274,2.341,2.3438,2.3491,2.3515,2.3543,2.3389,2.337,2.3353,2.3312,2.3527,2.3527,2.3695,2.3697,2.3698,2.1543,2.1623,2.1756,2.1916,2.2029,2.2034,2.2163,2.2257,2.2401,2.2517,2.2641,2.282,2.2968,2.3076,2.3228,2.3311,2.3322,2.3348,2.3341,2.3358,2.3195,2.3152,2.3336,2.3336,2.3336,2.3336,2.3336,2.3336,2.1328,2.1432,2.1557,2.1701,2.1796,2.1904,2.2011,2.2093,2.2224,2.2387,2.2423,2.2588,2.2714,2.2924,2.3008,2.3138,2.3119,2.3163,2.3174,2.3183,2.3184,2.2927,2.3167,2.3167,2.3167,2.3166,2.3166,0,2.1186,2.1219,2.135,2.1495,2.1603,2.1722,2.1839,2.1907,2.1998,2.2104,2.2261,2.236,2.2556,2.271,2.2866,2.2945,2.2962,2.2971,2.3001,2.2983,2.2945,2.2963,2.269,2.2964,2.2962,2.2961,2.296,2.296,2.0969,2.1086,2.1243,2.1328,2.1404,2.1543,2.1635,2.1707,2.1802,2.1959,2.2048,2.2204,2.2332,2.2579,2.2676,2.2824,2.2834,2.2931,2.2857,2.2834,2.2831,2.2821,2.2832,2.2943,2.2946,2.2947,2.2949,0,2.0842,2.0922,2.112,2.1265,2.1305,2.1424,2.1549,2.1658,2.1727,2.1886,2.1927,2.2036,2.2191,2.2274,2.247,2.2508,2.2704,2.2712,2.2658,2.2663,2.2756,2.2744,2.3052,2.3094,2.2877,2.2879,2.2881,0,2.0687,2.0839,2.095,2.1061,2.1232,2.13,2.1468,2.1544,2.1655,2.1781,2.1814,2.1932,2.202,2.2151,2.2209,2.2385,2.2423,2.2462,2.2475,2.2457,2.2451,2.2508,2.2496,2.2505,2.2503,2.2502,2.25,0,2.0476,2.0717,2.0897,2.0965,2.1137,2.1221,2.1297,2.1423,2.1514,2.1647,2.1707,2.1858,2.1941,2.2057,2.2128,2.2074,2.2348,2.2288,2.2387,2.2385,2.2442,2.2437,2.269,2.2498,2.2498,2.2497,2.2497,0,2.0363,2.0493,2.0746,2.0888,2.0948,2.107,2.122,2.1344,2.1475,2.1518,2.1624,2.1656,2.182,2.1753,2.1979,2.1887,2.1966,2.202,2.2028,2.2046,2.1968,2.2095,2.2331,2.2357,2.2064,2.206,2.2057,0,2.0096,2.0373,2.0433,2.0673,2.0812,2.0836,2.0973,2.1088,2.1157,2.1286,2.1364,2.1512,2.1481,2.1538,2.164,2.1726,2.1847,2.1713,2.1897,2.1903,2.1856,2.2075,2.2087,2.2271,2.2012,2.2017,2.202,0,1.99,2.0107,2.0146,2.0225,2.0389,2.0508,2.0665,2.0826,2.0908,2.1038,2.117,2.1384,2.1367,2.1464,2.1507,2.1608,2.1767,2.1578,2.1582,2.1606,2.1999,2.2008,2.2039,2.1774,2.178,2.1784,2.1985,0,1.9702,1.9853,1.9963,2.014,2.0244,2.0401,2.0488,2.0586,2.0615,2.0685,2.0884,2.1006,2.1173,2.1233,2.1265,2.1471,2.1449,2.1431,2.1371,2.1516,2.1584,2.1612,2.1262,2.1261,2.126,2.1259,0,0,1.9425,1.9643,1.9706,1.9861,1.9952,1.9977,2.0136,2.023,2.0418,2.0481,2.0449,2.0766,2.0868,2.1101,2.1153,2.1224,2.1268,2.1215,2.1447,2.1468,2.1487,2.1558,2.1586,2.1257,2.1257,2.1256,2.1256,0,1.937,1.9469,1.9626,1.9724,1.9872,1.9939,1.9976,2.0129,2.0181,2.0379,2.0398,2.0529,2.0785,2.0887,2.0973,2.1189,2.1197,2.1235,2.1319,2.1434,2.1456,2.1476,2.1549,2.1575,2.1254,2.1254,2.1254,0,1.9189,1.9299,1.9385,1.9596,1.9695,1.984,1.9797,1.9954,2.0062,2.0085,2.0281,2.0361,2.0508,2.0719,2.0818,2.0792,2.1126,2.1039,2.1048,2.1061,2.1176,2.1203,2.1226,2.0917,2.0915,2.0914,0,0,1.9129,1.9271,1.9413,1.9591,1.9651,1.9753,1.9841,1.9878,2.0008,2.006,2.0163,2.029,2.0438,2.0535,2.068,2.0901,2.0936,2.0994,2.101,2.1022,2.1041,2.116,2.1186,2.0908,2.0908,2.0907,0,0,1.9102,1.9272,1.9278,1.9495,1.9616,1.977,1.9876,1.9888,2.0027,2.0019,2.0094,2.0131,2.0331,2.0411,2.0321,2.066,2.0599,2.0623,2.06,2.0622,2.0638,2.0613,2.0296,0,0,0,0,0,1.9089,1.925,1.9254,1.9303,1.9574,1.9768,1.9803,1.9867,1.982,1.9902,1.999,1.9994,2.0377,2.0299,2.0348,2.0448,2.0832,2.0845,2.0858,2.0882,2.0903,2.0921,0,0,0,0,0,0,1.9109,1.9169,1.925,1.9409,1.9471,1.9763,1.9698,1.972,1.9813,1.981,1.9976,1.9999,2.0059,2.0278,2.0322,2.0415,2.0281,2.0837,2.0848,2.0859,2.0889,2.0906,2.0921,0,0,0,0,0,1.9125,1.9174,1.959,1.9407,1.9461,1.9584,1.9692,1.971,1.9784,1.9921,1.9943,1.9823,2.006,2.0101,2.0304,2.0393,2.0252,2.0268,2.0844,2.0853,2.0862,2.0897,0,0,0,0,0,0,1.9137,1.9192,1.9602,1.9621,1.9351,1.9569,1.9605,1.9701,1.989,1.9913,1.977,1.9766,2.0063,2.0094,2.0126,2.0382,2.0227,2.0244,2.0254,2.0851,2.0858,2.0865,0,0,0,0,0,0,1.9167,1.9208,1.9612,1.9537,1.9548,1.9554,1.9587,1.977,1.9892,1.9729,1.9731,1.9766,2.0016,2.009,2.0114,2.0399,2.0209,2.0225,2.0235,2.0242,2.0857,2.0863,0,0,0,0,0,0,1.9185,1.9221,1.9533,1.9541,1.955,1.9765,1.9718,1.9993,1.9824,1.972,1.9811,1.9805,2.0012,2.0038,2.0107,2.0381,2.0394,2.021,2.022,2.0228,2.0233,0,0,0,0,0,0,0,1.92,1.8947,1.9491,1.9544,1.9552,1.9794,1.9799,1.9804,1.9823,1.9818,1.9813,1.9808,2.012,2.0137,2.0155,2.0366,0,0,2.0208,2.0216,0,0,0,0,0,0,0,0,1.8934,1.8944,1.9492,1.9496,1.9499,1.9795,1.9799,1.9803,1.9822,1.9818,1.9814,1.981,2.0125,2.0139,2.0153,0,0,0,0,0,0,0,0,0,0,0,0,0,0,0,1.9492,1.9495,0,1.9795,1.9799,1.9802,1.9821,1.9818,1.9815,1.9811,2.0129,2.014,2.0152,0,0,0,0,0,0,0,0,0,0,0,0,0,0,0,0,0,0,0,0,0,0,0,0,0,0,0,0,0,0,0,0,0,0,0,0,0,0,0,0,0,0,0,0,0,0,0,0,0,0,0,0,0,0,0,0,0,0,0,0,0,0,0,0,0,0,0,0,0]}],[{"header":{"parameterUnit":"kt","parameterCategory":2,"dx":1,"dy":1,"la1":30.253999710083008,"la2":30.299108505249023,"lo1":-89.0895004272461,"lo2":-89.04439544677734,"nx":28,"ny":28,"refTime":"2022-10-07T21:00:00:Z","depth":0,"parameterNumber":2,"parameterNumberName":"V-component_of_WINDS"},"data":[2.8879,2.893,2.8901,2.8948,2.893,2.8957,2.8957,2.8955,2.8948,2.8977,2.899,2.8969,2.8951,2.896,2.8973,2.8964,2.8969,2.9006,2.8987,2.8848,2.8827,2.8806,2.8789,2.9009,2.9009,2.9133,2.9134,2.9135,2.877,2.8752,2.877,2.8767,2.8781,2.8728,2.8723,2.8738,2.8765,2.8757,2.8769,2.8794,2.8812,2.8782,2.8794,2.8818,2.8793,2.8823,2.8818,2.8815,2.8666,2.8648,2.8842,2.8842,2.8841,2.8841,2.8841,2.8841,2.8564,2.8597,2.8578,2.8597,2.859,2.8589,2.8617,2.8589,2.8608,2.8617,2.8583,2.8614,2.8602,2.8607,2.8603,2.8626,2.8589,2.8613,2.8618,2.8623,2.863,2.8442,2.8628,2.8628,2.8627,2.8626,2.8626,0,2.8402,2.8375,2.8392,2.8399,2.8412,2.8417,2.8416,2.8433,2.8372,2.8391,2.8415,2.8426,2.8446,2.8466,2.8475,2.8465,2.8412,2.8407,2.8422,2.8434,2.8443,2.8432,2.8184,2.8401,2.8399,2.8398,2.8397,2.8396,2.8186,2.8232,2.8202,2.8217,2.8209,2.8237,2.8247,2.819,2.8204,2.8197,2.8232,2.8253,2.8266,2.8313,2.8284,2.8301,2.8275,2.8359,2.8277,2.8286,2.8268,2.8263,2.8265,2.8374,2.8377,2.8379,2.8381,0,2.8066,2.8021,2.8084,2.8051,2.8044,2.8095,2.8066,2.8101,2.8072,2.8115,2.8122,2.8078,2.8106,2.8063,2.8088,2.8065,2.8145,2.8122,2.8145,2.8136,2.8203,2.8195,2.8438,2.8465,2.8243,2.8246,2.8247,0,2.7862,2.7926,2.7854,2.7893,2.7961,2.7902,2.7971,2.7954,2.7944,2.7977,2.7911,2.7944,2.7885,2.7912,2.7879,2.7938,2.7945,2.7928,2.7917,2.7931,2.7932,2.7936,2.7923,2.79,2.7899,2.7898,2.7897,0,2.7674,2.7714,2.7778,2.778,2.7753,2.7785,2.7776,2.7765,2.7778,2.7788,2.7795,2.7814,2.7823,2.7838,2.7793,2.7739,2.7867,2.7783,2.785,2.7851,2.7878,2.7876,2.8106,2.7896,2.7895,2.7895,2.7894,0,2.7501,2.751,2.7613,2.7586,2.7599,2.7645,2.7654,2.7684,2.7678,2.7658,2.7667,2.7618,2.7671,2.7588,2.7659,2.7598,2.7611,2.7602,2.7606,2.7604,2.7512,2.764,2.7868,2.7887,2.7606,2.7604,2.7602,0,2.7294,2.7386,2.7335,2.7435,2.7471,2.7389,2.7438,2.7436,2.7414,2.7442,2.7419,2.7454,2.7385,2.7389,2.7431,2.7408,2.7487,2.7397,2.7435,2.7437,2.7431,2.7642,2.7683,2.7824,2.7571,2.7574,2.7577,0,2.7128,2.7094,2.7117,2.7114,2.7102,2.7134,2.7193,2.7212,2.7232,2.7242,2.7286,2.7339,2.7285,2.7297,2.726,2.7305,2.7432,2.7243,2.7242,2.7273,2.7555,2.7592,2.7616,2.7397,2.7401,2.7404,2.7552,0,2.6863,2.6907,2.6966,2.6969,2.6988,2.7052,2.7004,2.703,2.6989,2.6965,2.7035,2.7028,2.7052,2.7072,2.7036,2.7155,2.7127,2.7073,2.6987,2.7129,2.7175,2.7196,2.692,2.6917,2.6915,2.6913,0,0,2.6674,2.6734,2.6678,2.6732,2.6743,2.6658,2.6729,2.6733,2.6742,2.6752,2.6704,2.6776,2.6774,2.6863,2.6904,2.6918,2.6933,2.6887,2.7063,2.708,2.7096,2.7147,2.7169,2.6909,2.6908,2.6907,2.6907,0,2.6565,2.6562,2.6633,2.6632,2.6629,2.66,2.6617,2.6601,2.6589,2.6659,2.659,2.6628,2.6692,2.6694,2.6704,2.6876,2.6821,2.6888,2.6991,2.7042,2.7062,2.7079,2.7134,2.7155,2.6901,2.6901,2.6902,0,2.6388,2.6374,2.6405,2.643,2.6429,2.6472,2.6369,2.6422,2.6452,2.6362,2.6433,2.6424,2.6427,2.6521,2.6563,2.652,2.6721,2.6654,2.6667,2.667,2.6716,2.6741,2.6762,2.6477,2.6476,2.6475,0,0,2.6302,2.6343,2.6312,2.6404,2.6407,2.6366,2.6386,2.6348,2.6351,2.6353,2.6339,2.6346,2.6381,2.6406,2.6438,2.655,2.6544,2.6603,2.6623,2.664,2.6652,2.6702,2.6727,2.647,2.647,2.647,0,0,2.6261,2.6226,2.6185,2.6286,2.6289,2.6267,2.6325,2.6274,2.6298,2.6285,2.6227,2.6227,2.6315,2.631,2.6248,2.6406,2.6323,2.6337,2.6406,2.643,2.645,2.6447,2.6143,0,0,0,0,0,2.6126,2.623,2.6192,2.6202,2.6237,2.6287,2.6291,2.6243,2.6182,2.6229,2.6209,2.6152,2.6263,2.6206,2.6219,2.6288,2.6405,2.6417,2.6428,2.6541,2.6568,2.659,0,0,0,0,0,0,2.6129,2.6142,2.6189,2.6172,2.6179,2.6283,2.6169,2.6159,2.6176,2.6163,2.6157,2.6152,2.6114,2.6197,2.6209,2.6276,2.6139,2.641,2.642,2.6428,2.655,2.6572,2.659,0,0,0,0,0,2.6132,2.6141,2.621,2.617,2.6176,2.6137,2.6165,2.6155,2.6168,2.6139,2.6132,2.613,2.6117,2.6124,2.6204,2.6271,2.6131,2.6135,2.6416,2.6424,2.6431,2.6561,0,0,0,0,0,0,2.6134,2.6134,2.621,2.6211,2.6127,2.613,2.6129,2.6153,2.6142,2.6135,2.6109,2.6099,2.6121,2.6125,2.6131,2.6272,2.6124,2.6129,2.6131,2.6422,2.6428,2.6433,0,0,0,0,0,0,2.6128,2.6135,2.6211,2.6159,2.6153,2.6124,2.6123,2.6186,2.6143,2.6112,2.6103,2.6105,2.6114,2.6127,2.6131,2.6232,2.6119,2.6123,2.6126,2.6128,2.6427,2.6432,0,0,0,0,0,0,2.613,2.6136,2.6158,2.6154,2.6148,2.6147,2.6179,2.6219,2.6096,2.6114,2.6083,2.6078,2.6117,2.612,2.6132,2.6231,2.6232,2.6119,2.6122,2.6124,2.6125,0,0,0,0,0,0,0,2.6132,2.6106,2.6209,2.615,2.6144,2.6213,2.6213,2.6213,2.6094,2.609,2.6085,2.608,2.6093,2.6098,2.6103,2.6231,0,0,2.6118,2.612,0,0,0,0,0,0,0,0,2.6102,2.6105,2.6209,2.6209,2.6209,2.6213,2.6213,2.6213,2.6094,2.609,2.6086,2.6082,2.6095,2.6098,2.6102,0,0,0,0,0,0,0,0,0,0,0,0,0,0,0,2.6209,2.6209,0,2.6213,2.6213,2.6213,2.6093,2.609,2.6087,2.6083,2.6096,2.6099,2.6102,0,0,0,0,0,0,0,0,0,0,0,0,0,0,0,0,0,0,0,0,0,0,0,0,0,0,0,0,0,0,0,0,0,0,0,0,0,0,0,0,0,0,0,0,0,0,0,0,0,0,0,0,0,0,0,0,0,0,0,0,0,0,0,0,0,0,0,0,0]}]]]